Date String (YYYY-MM-DD hh:mm:ss) UTC,Instrument flags,Ambient pressure (hPa),Sample flow (lpm),Bypass flow (lpm),Sample temperature (°C),Ambient temperature (°C),ASC tube jacket temperature (°C),LED temperature (°C),Box temperature (°C),Sample RH (%),Span deviation,Mass concentration (μg/m³),Mass concentration (μg/m³),Mass concentration (μg/m³)
DateTimeUTC,F1_M11,P_M11,Q1_M11,Q2_M11,T1_M11,T2_M11,T3_M11,T4_M11,T5_M11,U1_M11,ZSPAN_M11,X0_M11,X2_M11,X1_M11
2022-02-26 12:00:00,,0829.5,5.00,0.00,21.9,21.3,00.0,31.0,23.4,06.9,0001.7,0016.87,0010.93,0010.03
2022-02-26 12:01:00,,0829.5,5.01,0.00,21.8,21.2,00.0,31.0,23.3,06.9,0001.9,0016.84,0010.94,0010.02
2022-02-26 12:02:00,,0829.5,4.99,0.00,21.8,21.0,00.0,30.9,23.3,07.0,0002.1,0016.33,0010.91,0010.01
2022-02-26 12:03:00,,0829.5,5.00,0.00,21.7,21.1,00.0,30.9,23.3,07.0,0001.9,0016.15,0010.90,0009.99
2022-02-26 12:04:00,,0829.5,5.01,0.00,21.8,21.9,00.0,30.9,23.5,07.0,0001.6,0015.67,0010.82,0009.98
2022-02-26 12:05:00,,0829.5,5.00,0.00,22.0,22.7,00.0,31.0,23.8,06.9,0001.3,0015.28,0010.82,0009.99
2022-02-26 12:06:00,,0829.5,4.99,0.00,22.1,23.1,00.0,31.0,23.9,06.9,0001.3,0015.20,0010.87,0010.04
2022-02-26 12:07:00,,0829.5,5.00,0.00,22.1,22.7,00.0,31.0,23.9,06.9,0001.6,0015.36,0010.99,0010.13
2022-02-26 12:08:00,,0829.5,4.99,0.00,22.1,22.4,00.0,31.0,23.8,06.9,0001.6,0015.46,0011.04,0010.16
2022-02-26 12:09:00,,0829.5,5.02,0.00,22.0,22.0,00.0,31.0,23.6,06.9,0001.5,0015.58,0011.06,0010.14
2022-02-26 12:10:00,,0829.5,5.00,0.00,21.9,21.6,00.0,31.0,23.4,07.0,0001.5,0015.55,0010.97,0010.09
2022-02-26 12:11:00,,0829.5,4.99,0.00,21.8,21.2,00.0,31.0,23.2,07.0,0001.0,0015.58,0010.96,0010.09
2022-02-26 12:12:00,,0829.5,5.02,0.00,21.6,20.9,00.0,30.9,23.0,07.1,0000.8,0016.31,0011.09,0010.24
2022-02-26 12:13:00,,0829.5,5.00,0.00,21.6,20.9,00.0,30.9,23.0,07.2,0000.3,0016.74,0011.25,0010.42
2022-02-26 12:14:00,,0829.5,4.99,0.00,21.7,21.6,00.0,30.9,23.2,07.2,0000.3,0016.98,0011.40,0010.60
2022-02-26 12:15:00,,0829.6,5.00,0.00,21.8,22.3,00.0,30.9,23.5,07.2,0000.7,0017.27,0011.59,0010.76
2022-02-26 12:16:00,,0829.6,5.01,0.00,22.0,22.9,00.0,31.0,23.8,07.1,0001.2,0017.61,0011.78,0010.89
2022-02-26 12:17:00,,0829.6,4.99,0.00,22.1,23.0,00.0,31.0,23.9,07.0,0001.6,0017.82,0011.90,0010.99
2022-02-26 12:18:00,,0829.6,5.00,0.00,22.0,22.5,00.0,31.0,23.7,07.0,0001.6,0017.87,0011.92,0011.03
2022-02-26 12:19:00,,0829.6,5.01,0.00,21.9,22.0,00.0,31.0,23.5,07.1,0001.4,0018.08,0012.03,0011.11
2022-02-26 12:20:00,,0829.6,4.98,0.00,21.8,21.6,00.0,30.9,23.3,07.1,0001.5,0018.23,0012.16,0011.27
2022-02-26 12:21:00,,0829.6,5.01,0.00,21.7,21.3,00.0,30.9,23.1,07.1,0001.4,0018.65,0012.41,0011.49
2022-02-26 12:22:00,,0829.6,5.00,0.00,21.6,21.0,00.0,30.9,23.1,07.2,0001.5,0019.14,0012.61,0011.70
2022-02-26 12:23:00,,0829.6,5.00,0.00,21.5,20.8,00.0,30.8,23.0,07.2,0001.6,0018.57,0012.63,0011.75
2022-02-26 12:24:00,,0829.7,5.01,0.00,21.5,21.1,00.0,30.8,23.0,07.1,0001.8,0018.14,0012.64,0011.77
2022-02-26 12:25:00,,0829.6,5.00,0.00,21.7,21.8,00.0,30.8,23.3,07.1,0001.7,0018.01,0012.63,0011.76
2022-02-26 12:26:00,,0829.7,5.01,0.00,21.8,22.5,00.0,30.9,23.6,07.1,0001.3,0018.15,0012.60,0011.74
2022-02-26 12:27:00,,0829.7,4.99,0.00,21.9,22.8,00.0,30.9,23.8,07.0,0000.5,0017.99,0012.54,0011.73
2022-02-26 12:28:00,,0829.6,5.00,0.00,22.0,22.5,00.0,30.9,23.7,07.0,0000.4,0018.44,0012.54,0011.73
2022-02-26 12:29:00,,0829.6,5.00,0.00,21.9,22.0,00.0,30.9,23.5,07.0,0000.3,0018.36,0012.56,0011.76
2022-02-26 12:30:00,,0829.6,4.99,0.00,21.8,21.5,00.0,30.9,23.3,07.0,0000.2,0018.28,0012.54,0011.77
2022-02-26 12:31:00,,0829.6,5.00,0.00,21.6,21.0,00.0,30.8,23.1,07.1,-000.1,0018.38,0012.53,0011.77
2022-02-26 12:32:00,,0829.6,5.00,0.00,21.5,20.7,00.0,30.8,22.9,07.1,-000.6,0018.47,0012.52,0011.77
2022-02-26 12:33:00,,0829.6,5.00,0.00,21.5,20.9,00.0,30.8,22.9,07.2,-001.1,0018.05,0012.51,0011.76
2022-02-26 12:34:00,,0829.6,5.01,0.00,21.6,21.8,00.0,30.8,23.2,07.1,-001.4,0018.05,0012.52,0011.75
2022-02-26 12:35:00,,0829.6,4.98,0.00,21.7,22.5,00.0,30.8,23.5,07.1,-001.5,0018.09,0012.54,0011.75
2022-02-26 12:36:00,,0829.6,5.01,0.00,21.9,22.8,00.0,30.8,23.7,07.0,-001.5,0018.17,0012.59,0011.76
2022-02-26 12:37:00,,0829.6,5.00,0.00,21.9,22.4,00.0,30.8,23.6,07.0,-001.1,0018.07,0012.69,0011.82
2022-02-26 12:38:00,,0829.6,4.99,0.00,21.8,21.9,00.0,30.8,23.4,07.1,-000.8,0018.44,0012.78,0011.90
2022-02-26 12:39:00,,0829.6,4.99,0.00,21.7,21.5,00.0,30.8,23.2,07.1,-000.7,0018.50,0012.82,0011.95
2022-02-26 12:40:00,,0829.6,5.00,0.00,21.6,21.2,00.0,30.8,23.0,07.1,-000.9,0018.75,0012.88,0011.98
2022-02-26 12:41:00,,0829.6,5.00,0.00,21.5,20.9,00.0,30.7,22.9,07.2,-000.8,0018.79,0012.93,0012.03
2022-02-26 12:42:00,,0829.6,5.00,0.00,21.5,21.1,00.0,30.7,22.9,07.2,-000.7,0018.71,0012.97,0012.07
2022-02-26 12:43:00,,0829.6,5.01,0.00,21.6,21.8,00.0,30.7,23.2,07.2,0000.1,0018.49,0012.99,0012.09
2022-02-26 12:44:00,,0829.6,5.01,0.00,21.7,22.6,00.0,30.8,23.5,07.1,0000.4,0019.04,0013.03,0012.14
2022-02-26 12:45:00,,0829.6,4.98,0.00,21.9,22.9,00.0,30.8,23.7,07.1,0000.6,0019.31,0013.11,0012.20
2022-02-26 12:46:00,,0829.6,5.00,0.00,21.9,22.4,00.0,30.8,23.6,07.1,0000.7,0019.24,0013.13,0012.24
2022-02-26 12:47:00,,0829.6,4.99,0.00,21.8,22.0,00.0,30.8,23.4,07.1,0001.0,0019.34,0013.18,0012.32
2022-02-26 12:48:00,,0829.6,5.01,0.00,21.7,21.7,00.0,30.8,23.2,07.1,0000.8,0019.40,0013.18,0012.35
2022-02-26 12:49:00,,0829.6,5.00,0.00,21.6,21.3,00.0,30.8,23.1,07.2,0000.9,0019.18,0013.17,0012.37
2022-02-26 12:50:00,,0829.5,5.00,0.00,21.5,21.0,00.0,30.7,22.9,07.2,0000.8,0018.61,0013.15,0012.37
2022-02-26 12:51:00,,0829.6,5.00,0.00,21.5,21.0,00.0,30.7,22.9,07.2,0001.1,0018.41,0013.12,0012.35
2022-02-26 12:52:00,,0829.5,4.99,0.00,21.6,21.8,00.0,30.7,23.2,07.2,0001.3,0018.62,0013.13,0012.34
2022-02-26 12:53:00,,0829.5,5.01,0.00,21.7,22.6,00.0,30.8,23.5,07.1,0001.4,0018.63,0013.12,0012.32
2022-02-26 12:54:00,,0829.5,4.98,0.00,21.9,23.1,00.0,30.8,23.7,07.1,0001.1,0018.69,0013.11,0012.31
2022-02-26 12:55:00,,0829.5,5.00,0.00,21.9,22.7,00.0,30.8,23.8,07.1,0001.0,0018.26,0013.15,0012.30
2022-02-26 12:56:00,,0829.5,4.99,0.00,21.9,22.3,00.0,30.8,23.6,07.1,0000.9,0018.08,0013.11,0012.29
2022-02-26 12:57:00,,0829.5,4.99,0.00,21.8,21.9,00.0,30.8,23.5,07.1,0000.8,0018.30,0013.13,0012.29
2022-02-26 12:58:00,,0829.6,5.01,0.00,21.8,21.6,00.0,30.8,23.4,07.1,0001.1,0018.38,0013.16,0012.29
2022-02-26 12:59:00,,0829.6,4.99,0.00,21.7,21.2,00.0,30.8,23.2,07.1,0001.5,0018.22,0013.18,0012.30
